Zurück zum Katalog

STARLINK-32137

AktivKommunikationVLEO
NORAD 60155·PAYLOAD·🇺🇸 United States

Gestartet Jun 27, 2024 von Cape Canaveral Space Force Station

Loading…

Nächste Überflüge (nächste 24 Stunden)

TLE

AktuellSource: CelesTrak SupGP

Epoche: Sep 14, 2026, 21:21 UTC

1 60155C 24120W   26257.89006944 -.00043198  00000+0 -12758-2 0  2576
2 60155  53.1580 157.8915 0001370  89.9502 101.1422 15.34424712    16

Verfolge STARLINK-32137 in Echtzeit mit AllMySat

Download on the App Store